Change the Weather History Date:

Friday, April 19, 2013

  Actual Average (KGSO) Record (KGSO)
Temperature  
Mean Temperature 66 °F 60 °F  
Max Temperature 77 °F 71 °F 92 °F (1917)
Min Temperature 56 °F 48 °F 26 °F (1983)
Degree Days  
Heating Degree Days 0 6  
Month to date heating degree days 163  
Since 1 July heating degree days 3488  
Cooling Degree Days 2 1  
Month to date cooling degree days 18  
Year to date cooling degree days 23  
Growing Degree Days 16 (Base 50)    
Moisture  
Dew Point 62 °F    
Average Humidity 81    
Maximum Humidity 98    
Minimum Humidity 65    
Precipitation  
Precipitation 0.42 in 0.12 in 1.86 in (1943)
Month to date precipitation 2.28  
Year to date precipitation 12.03  
Snow  
Snow 0.00 in 0.00 in 0.00 in ()
Month to date snowfall 0.1  
Since 1 July snowfall 7.6  
Snow Depth -    
Sea Level Pressure  
Sea Level Pressure 29.84 in    
Wind  
Wind Speed 8 mph (SSW)    
Max Wind Speed 25 mph    
Max Gust Speed 37 mph    
Visibility 10 miles    
Events Rain    
T = Trace of Precipitation, MM = Missing Value Source: NWS Daily Summary

Daily Weather History Graph

Daily Weather History Graph

Search for Another Location

Airport or City:

Trip Planner

Search our weather history database for the weather conditions in past years. The results will help you decide how hot, cold, wet, or windy it might be!

Date:

Astronomy

Apr. 19, 2013 Rise Set
Actual Time 6:40 AM EDT 7:57 PM EDT
Civil Twilight 6:13 AM EDT 8:24 PM EDT
Nautical Twilight 5:41 AM EDT 8:56 PM EDT
Astronomical Twilight 5:08 AM EDT 9:29 PM EDT
Moon 1:50 PM EDT (4/19) 2:44 AM EDT (4/19)
Length of Visible Light 14h 10m
Length of Day
13h 16m
First Quarter, 61% of the Moon is Illuminated
Apr 19
First Quarter
Apr 25
Full
May 2
Last Quarter
May 9
New
May 18
First Quarter

Hourly Weather History & Observations

Time (EDT) Temp. Dew Point Humidity Pressure Visibility Wind Dir Wind Speed Gust Speed Precip Events Conditions
12:15 AM 67.6 °F 59.0 °F 74% 30.01 in 10.0 mi South 9.2 mph - N/A   Scattered Clouds
12:35 AM 67.3 °F 59.5 °F 76% 30.01 in 10.0 mi SSE 5.8 mph - N/A   Scattered Clouds
12:55 AM 66.4 °F 59.9 °F 80% 30.00 in 10.0 mi South 6.9 mph - N/A   Scattered Clouds
1:15 AM 66.4 °F 60.1 °F 80% 29.99 in 10.0 mi South 8.1 mph - N/A   Mostly Cloudy
1:35 AM 66.4 °F 60.6 °F 82% 29.99 in 10.0 mi South 8.1 mph - N/A   Overcast
1:55 AM 66.7 °F 60.8 °F 81% 29.97 in 10.0 mi SSW 6.9 mph - N/A   Overcast
2:15 AM 66.6 °F 60.8 °F 82% 29.96 in 10.0 mi South 5.8 mph - N/A   Overcast
2:35 AM 66.7 °F 60.8 °F 81% 29.96 in 10.0 mi SSW 9.2 mph - N/A   Overcast
2:55 AM 67.1 °F 60.4 °F 79% 29.95 in 10.0 mi SSW 6.9 mph - N/A   Overcast
3:15 AM 67.1 °F 60.8 °F 80% 29.94 in 10.0 mi South 6.9 mph - N/A   Overcast
3:35 AM 67.1 °F 60.8 °F 80% 29.93 in 10.0 mi South 5.8 mph - N/A   Overcast
3:55 AM 67.1 °F 60.8 °F 80% 29.93 in 10.0 mi SSW 8.1 mph - N/A   Overcast
4:15 AM 67.3 °F 61.0 °F 80% 29.92 in 10.0 mi SSW 6.9 mph - N/A   Overcast
4:35 AM 66.7 °F 61.0 °F 82% 29.91 in 10.0 mi South 6.9 mph - N/A   Mostly Cloudy
4:55 AM 66.7 °F 61.2 °F 82% 29.91 in 10.0 mi SSW 5.8 mph - N/A   Mostly Cloudy
5:15 AM 66.6 °F 61.2 °F 83% 29.90 in 10.0 mi SSW 6.9 mph - N/A   Overcast
5:35 AM 66.7 °F 61.3 °F 83% 29.89 in 10.0 mi South 4.6 mph - N/A   Overcast
5:55 AM 66.9 °F 61.5 °F 83% 29.88 in 10.0 mi South 6.9 mph - N/A   Overcast
6:15 AM 67.1 °F 61.7 °F 83% 29.88 in 10.0 mi South 6.9 mph - N/A   Overcast
6:35 AM 67.1 °F 61.7 °F 83% 29.88 in 10.0 mi SSW 8.1 mph 16.1 mph N/A   Overcast
6:55 AM 67.1 °F 61.7 °F 83% 29.89 in 10.0 mi South 6.9 mph - N/A   Overcast
7:15 AM 67.3 °F 61.7 °F 82% 29.89 in 10.0 mi SSW 8.1 mph - N/A   Overcast
7:35 AM 67.6 °F 61.9 °F 82% 29.88 in 10.0 mi South 6.9 mph - N/A   Overcast
7:55 AM 67.8 °F 62.1 °F 82% 29.89 in 10.0 mi SSW 8.1 mph - N/A   Overcast
8:15 AM 68.2 °F 62.4 °F 82% 29.89 in 10.0 mi SSW 6.9 mph 16.1 mph N/A   Mostly Cloudy
8:35 AM 68.2 °F 62.6 °F 82% 29.89 in 10.0 mi SSW 9.2 mph - N/A   Overcast
8:55 AM 68.9 °F 62.6 °F 80% 29.89 in 10.0 mi South 8.1 mph - N/A   Overcast
9:15 AM 68.9 °F 62.6 °F 80% 29.89 in 10.0 mi South 9.2 mph 16.1 mph N/A   Overcast
9:35 AM 68.9 °F 62.6 °F 80% 29.88 in 10.0 mi SSW 6.9 mph 17.3 mph N/A   Overcast
9:55 AM 70.3 °F 63.0 °F 77% 29.88 in 10.0 mi SSW 8.1 mph - N/A   Overcast
10:15 AM 70.0 °F 63.1 °F 79% 29.88 in 10.0 mi SSW 8.1 mph 16.1 mph N/A   Overcast
10:35 AM 72.0 °F 63.3 °F 74% 29.86 in 10.0 mi SSW 10.4 mph 23.0 mph N/A   Overcast
10:55 AM 73.0 °F 63.7 °F 72% 29.86 in 7.0 mi SSW 12.7 mph 23.0 mph N/A   Mostly Cloudy
11:15 AM 73.2 °F 63.5 °F 71% 29.86 in 10.0 mi South 9.2 mph 21.9 mph N/A   Overcast
11:35 AM 73.0 °F 63.7 °F 72% 29.85 in 10.0 mi South 10.4 mph 20.7 mph N/A   Overcast
11:55 AM 74.3 °F 64.0 °F 70% 29.83 in 10.0 mi SSW 11.5 mph 19.6 mph N/A   Overcast
12:15 PM 74.3 °F 64.4 °F 71% 29.83 in 10.0 mi South 6.9 mph 16.1 mph N/A   Overcast
12:35 PM 75.2 °F 64.0 °F 68% 29.81 in 10.0 mi SSW 10.4 mph 29.9 mph N/A   Overcast
12:55 PM 75.4 °F 64.2 °F 68% 29.79 in 10.0 mi South 10.4 mph 21.9 mph N/A   Overcast
1:15 PM 75.7 °F 64.4 °F 68% 29.79 in 10.0 mi SSW 9.2 mph 17.3 mph N/A   Mostly Cloudy
1:35 PM 76.1 °F 64.4 °F 67% 29.77 in 10.0 mi South 10.4 mph 19.6 mph N/A   Mostly Cloudy
1:55 PM 76.1 °F 64.4 °F 67% 29.76 in 10.0 mi South 9.2 mph 20.7 mph N/A   Mostly Cloudy
2:15 PM 76.3 °F 64.6 °F 67% 29.76 in 10.0 mi South 11.5 mph 16.1 mph N/A   Overcast
2:35 PM 77.0 °F 64.8 °F 66% 29.74 in 10.0 mi SSW 12.7 mph 21.9 mph N/A   Mostly Cloudy
2:55 PM 77.2 °F 64.8 °F 65% 29.74 in 10.0 mi South 11.5 mph 27.6 mph N/A   Mostly Cloudy
3:15 PM 77.4 °F 64.8 °F 65% 29.73 in 10.0 mi South 16.1 mph 26.5 mph N/A   Scattered Clouds
3:35 PM 77.0 °F 65.7 °F 68% 29.71 in 10.0 mi South 13.8 mph 24.2 mph N/A   Mostly Cloudy
3:55 PM 77.4 °F 66.2 °F 68% 29.70 in 10.0 mi South 11.5 mph 18.4 mph N/A   Scattered Clouds
4:15 PM 77.5 °F 65.3 °F 66% 29.70 in 10.0 mi SSW 12.7 mph 27.6 mph N/A Rain Light Rain
4:35 PM 71.8 °F 66.4 °F 83% 29.78 in 4.0 mi WSW 25.3 mph 36.8 mph 0.10 in Rain Rain
4:55 PM 64.8 °F 63.9 °F 97% 29.73 in 7.0 mi SW 9.2 mph 20.7 mph 0.32 in Rain Light Rain
5:15 PM 65.3 °F 64.6 °F 98% 29.73 in 10.0 mi SW 9.2 mph 18.4 mph N/A   Mostly Cloudy
5:35 PM 66.2 °F 65.3 °F 97% 29.74 in 10.0 mi SSW 6.9 mph - N/A Rain Light Rain
5:55 PM 67.1 °F 65.3 °F 94% 29.74 in 4.0 mi SW 6.9 mph - 0.03 in Rain Heavy Rain
6:15 PM 67.5 °F 65.3 °F 93% 29.75 in 10.0 mi SSW 13.8 mph 19.6 mph 0.01 in Rain Light Rain
6:35 PM 67.3 °F 64.8 °F 92% 29.74 in 10.0 mi SSW 10.4 mph - 0.01 in Rain Light Rain
6:55 PM 67.1 °F 64.6 °F 92% 29.72 in 10.0 mi SSW 6.9 mph - 0.01 in Rain Light Rain
7:15 PM 66.6 °F 64.4 °F 93% 29.72 in 10.0 mi South 5.8 mph - N/A   Mostly Cloudy
7:35 PM 66.6 °F 64.6 °F 93% 29.73 in 10.0 mi SSW 5.8 mph - N/A Rain Light Rain
7:55 PM 66.2 °F 64.4 °F 94% 29.73 in 7.0 mi SSW 5.8 mph - 0.02 in Rain Rain
8:15 PM 65.8 °F 64.0 °F 94% 29.75 in 10.0 mi SW 4.6 mph - N/A Rain Light Rain
8:35 PM 65.7 °F 63.9 °F 94% 29.75 in 10.0 mi SW 4.6 mph - 0.02 in Rain Rain
8:55 PM 65.7 °F 63.7 °F 93% 29.76 in 10.0 mi SSW 4.6 mph - 0.04 in Rain Rain
9:15 PM 65.5 °F 63.5 °F 93% 29.77 in 10.0 mi WSW 4.6 mph - N/A Rain Light Rain
9:35 PM 65.3 °F 62.8 °F 92% 29.78 in 10.0 mi SW 5.8 mph - N/A   Scattered Clouds
9:55 PM 64.8 °F 62.4 °F 92% 29.79 in 10.0 mi WSW 5.8 mph - N/A   Mostly Cloudy
10:15 PM 64.4 °F 62.6 °F 94% 29.81 in 10.0 mi WSW 5.8 mph - N/A   Overcast
10:35 PM 59.2 °F 54.1 °F 83% 29.82 in 10.0 mi WNW 4.6 mph - N/A Rain Light Rain
10:55 PM 57.9 °F 53.4 °F 85% 29.82 in 10.0 mi NW 4.6 mph - N/A   Overcast
11:15 PM 57.2 °F 51.6 °F 82% 29.83 in 10.0 mi NW 5.8 mph - N/A   Overcast
11:35 PM 56.7 °F 48.4 °F 74% 29.83 in 10.0 mi WNW 8.1 mph - N/A   Overcast
11:55 PM 56.5 °F 45.0 °F 65% 29.86 in 10.0 mi WNW 6.9 mph 19.6 mph N/A   Overcast